Regional Weather Roundup
Issued by NWS

Home | Current Version | Previous Version | Text Only | Print | Product List | Glossary On
Versions: 1 2 3 4 5 6 7 8 9 10 11 12 13 14 15 16 17 18 19 20 21 22 23 24 25 26 27 28 29 30 31 32 33 34 35 36 37 38 39 40 41 42 43 44 45 46 47 48 49 50
000
ASUS43 KLOT 202200
RWRIL

ILLINOIS REGIONAL WEATHER ROUNDUP
NATIONAL WEATHER SERVICE CHICAGO/ROMEOVILLE IL
400 PM CST THU NOV 20 2014

NOTE: "FAIR" INDICATES FEW OR NO CLOUDS BELOW 12,000 FEET WITH NO
SIGNIFICANT WEATHER AND/OR OBSTRUCTIONS TO VISIBILITY.

* THESE STATIONS ARE NOT UNDER NWS QUALITY CONTROL. THEY ALSO MAY NOT
  REPORT WEATHER SUCH AS PRECIPITATION OR FOG.

ILZ001-002-007-009-015-016-024-202300-
NORTHWEST ILLINOIS

CITY           SKY/WX    TMP DP  RH WIND       PRES   REMARKS
MOLINE         CLEAR     27   8  44 NW18      30.19R WCI  14
STERLING*      CLEAR     25   7  46 W20       30.17R WCI  11
$$

ILZ003-004-008-010-011-017-018-202300-
NORTH CENTRAL ILLINOIS

CITY           SKY/WX    TMP DP  RH WIND       PRES   REMARKS
ROCKFORD       CLEAR     24   3  40 W17       30.14R WCI  11
FREEPORT*      CLEAR     23   5  46 W15G22    30.14R WCI  10
$$

ILZ005-006-012>014-019>023-202300-
NORTHEAST ILLINOIS

CITY           SKY/WX    TMP DP  RH WIND       PRES   REMARKS
CHICAGO-OHARE  PTCLDY    25   1  35 W17G30    30.09R WCI  12
CHICAGO-MIDWAY PTCLDY    28   2  32 W17G29    30.11R WCI  16
AURORA         CLEAR     26   3  37 W20       30.12R WCI  12
LANSING*       CLEAR     27   3  35 W15G24    30.11R WCI  15
WAUKEGAN       CLEAR     23   0  36 W9        30.07R WCI  13
DUPAGE AIRPORT CLEAR     25   1  35 W14       30.10R WCI  13
WHEELING       CLEAR     25   1  35 W15G25    30.11R WCI  13
NORTHERLY ISL    N/A     27   4  37 W14         N/A  WCI  16
$$

LMZ740>746-202300-
SOUTHERN LAKE MICHIGAN

STATION/POSITION SKY/WX   TEMP    WIND        PRES    VSBY  WAVE
                          AIR SEA DIR/SP/G                  HT/PER
                          (F)     (DEG/KT/KT) (MB)    (MI)  (FT/S)
SOUTHERN BUOY              26 43  270/ 19/ 29 1017.8R         6/ 6
WAUKEGAN HARBOR            25     300/ 12/ 23   N/A
HARRISON CRIB              26     280/ 22/ 31   N/A
BURNHAM HARBOR             27     270/  9/ 18   N/A
CALUMET HARBOR             27     260/ 11/ 18 1017.8R
MICHIGAN CITY              28     250/ 24/ 31   N/A
$$

ILZ025>027-034>036-040-047-049-050-058-095>099-202300-
WEST-CENTRAL ILLINOIS

CITY           SKY/WX    TMP DP  RH WIND       PRES   REMARKS
QUINCY         CLEAR     32  10  40 W12       30.20R WCI  23
MACOMB*        CLEAR     30  10  43 NW14      30.22R WCI  20
$$

ILZ028>032-037-038-041>044-048-051>054-059>061-202300-
CENTRAL ILLINOIS

CITY           SKY/WX    TMP DP  RH WIND       PRES   REMARKS
DECATUR        CLEAR     32  13  45 W13       30.19R WCI  22
PEORIA         CLEAR     31   8  38 NW13      30.19R WCI  21
LINCOLN*       CLEAR     33  10  37 W5        30.19R WCI  29
SPRINGFIELD    CLEAR     33  12  41 W14       30.20R WCI  23
TAYLORVILLE    NOT AVBL
$$

ILZ033-039-045-046-055>057-062-063-202300-
EAST-CENTRAL ILLINOIS

CITY           SKY/WX    TMP DP  RH WIND       PRES   REMARKS
CHAMPAIGN      CLEAR     31  12  45 W17       30.17R WCI  19
MATTOON        PTCLDY    30  16  56 W9        30.19R WCI  22
$$

ILZ079-100>102-202300-
SOUTHWEST ILLINOIS

CITY           SKY/WX    TMP DP  RH WIND       PRES   REMARKS
ALTON          PTCLDY    36  16  44 W7        30.22R WCI  30
BELLEVILLE     PTCLDY    37  17  43 NW7       30.21R WCI  32
CAHOKIA*       PTCLDY    37  19  48 NW7       30.22S WCI  32
$$

ILZ064>066-069>071-074>076-080>082-084>086-088>090-092>094-202300-
SOUTH-CENTRAL ILLINOIS

CITY           SKY/WX    TMP DP  RH WIND       PRES   REMARKS
CARBONDALE     CLEAR     39  18  42 W3        30.23R
MARION         CLEAR     39  18  41 NW8       30.24R WCI  34
MT. VERNON     CLOUDY    36  18  48 W5        30.23R WCI  32
$$

ILZ067-068-072-073-078-083-087-091-202300-
SOUTHEAST ILLINOIS

CITY           SKY/WX    TMP DP  RH WIND       PRES   REMARKS
LAWRENCEVILLE  CLEAR     33  17  51 W8        30.23R WCI  26
$$

ABBREVIATIONS USED IN REMARKS
   TC - TEMPERATURE IN CELSIUS
  WCI - WIND CHILL INDEX
   HX - HEAT INDEX
  VSB - VISIBILITY
$$



USA.gov is the U.S. government's official web portal to all federal, state and local government web resources and services.